Location: Casilda
(33.0440°S, 61.1680°W)
Time: 02:06:57
(UTC-03:00)

ISS - Pass Details

Date: 17 February 2020
Orbit: 415 x 423 km, 51.6° (Epoch: 27 February)

Event Time Altitude Azimuth Distance (km) Brightness Sun altitude
Rises 21:14:49 0° 280° (W) 2,371 1.0 -16.6°
Reaches altitude 10° 21:17:21 10° 260° (W) 1,511 0.2 -17.1°
Maximum altitude 21:19:49 19° 214° (SSW) 1,100 -0.9 -17.5°
Drops below altitude 10° 21:22:18 10° 167° (SSE) 1,518 -0.8 -18.0°
Sets 21:24:52 0° 147° (SSE) 2,387 0.0 -18.5°
